[[{"header":{"parameterUnit":"m.s-1","parameterCategory":1,"la1":30.2991,"la2":30.254,"lo1":-89.0895,"lo2":-89.0444,"dy":0.0017,"dx":0.0017,"nx":28,"ny":28,"refTime":"2025-04-05T09:00:00:Z","depth":0,"parameterNumber":2,"parameterNumberName":"U-component_of_WINDS"},"data":[0,0,0,0,0,0,0,0,0,0,0,0,0,0,0,0,0,0,0,0,0,0,0,0,0,0,0,0,0,0,0,0,0,0,0,0,0,0,0,0,0,0,0,0,0,0,0,0,0,0,0,0,0,0,0,0,0,0,3.5707,3.5706,0,3.5691,3.5691,3.5691,3.5603,3.5601,3.5599,3.5597,3.5581,3.5583,3.5584,0,0,0,0,0,0,0,0,0,0,0,0,0,3.5661,3.5662,3.5707,3.5706,3.5706,3.5691,3.5691,3.5691,3.5603,3.5601,3.5598,3.5596,3.5581,3.5582,3.5584,0,0,0,0,0,0,0,0,0,0,0,0,0,3.5667,3.5662,3.5707,3.5661,3.5656,3.5691,3.5691,3.5691,3.5604,3.56,3.5597,3.5594,3.558,3.5582,3.5585,3.5663,0,0,3.5592,3.5593,0,0,0,0,0,0,0,0,3.5666,3.5668,3.5668,3.5664,3.5659,3.5646,3.5669,3.5681,3.5604,3.5624,3.5596,3.5593,3.5605,3.5605,3.5609,3.5662,3.5661,3.5592,3.5593,3.5594,3.5595,0,0,0,0,0,0,0,3.5666,3.5668,3.57,3.5668,3.5663,3.5641,3.5638,3.5671,3.5632,3.5622,3.5615,3.5615,3.5602,3.5607,3.5608,3.5661,3.5592,3.5594,3.5595,3.5596,3.5776,3.5779,0,0,0,0,0,0,3.5672,3.5669,3.5701,3.57,3.5655,3.5644,3.5641,3.5653,3.5632,3.5626,3.5617,3.5611,3.5605,3.5606,3.5607,3.5696,3.5594,3.5597,3.5598,3.5772,3.5776,3.578,0,0,0,0,0,0,3.5671,3.5676,3.5702,3.5683,3.5684,3.5649,3.5663,3.5655,3.5659,3.5629,3.5621,3.563,3.5602,3.5604,3.5649,3.5694,3.5598,3.56,3.5768,3.5774,3.5778,3.5874,0,0,0,0,0,0,3.567,3.5676,3.5705,3.5684,3.5686,3.5744,3.5665,3.5657,3.5664,3.5655,3.5638,3.5632,3.56,3.5646,3.5652,3.5695,3.5602,3.5764,3.5771,3.5777,3.5867,3.5882,3.5894,0,0,0,0,0,3.5669,3.5733,3.5707,3.5711,3.5721,3.5746,3.5747,3.5709,3.5668,3.5696,3.5677,3.5633,3.5689,3.5652,3.5657,3.5702,3.5761,3.5769,3.5776,3.586,3.5879,3.5894,0,0,0,0,0,0,3.576,3.5729,3.57,3.5759,3.5756,3.5731,3.5766,3.573,3.5738,3.5729,3.5682,3.5679,3.5731,3.5721,3.568,3.5776,3.5717,3.5727,3.578,3.5797,3.5811,3.581,3.5604,0,0,0,0,0,3.5787,3.581,3.5782,3.5837,3.5837,3.5803,3.5812,3.5783,3.5778,3.5776,3.5759,3.5756,3.5773,3.5785,3.5799,3.5866,3.586,3.59,3.5914,3.5925,3.5933,3.5966,3.5983,3.5805,3.5805,3.5805,0,0,3.5843,3.5829,3.5846,3.5855,3.5849,3.5873,3.5802,3.5831,3.5848,3.578,3.5821,3.5809,3.5803,3.5859,3.5883,3.5853,3.5981,3.5935,3.5945,3.5945,3.5976,3.5993,3.6008,3.581,3.5809,3.5808,0,0,3.5956,3.5949,3.5993,3.5989,3.5981,3.5957,3.5969,3.595,3.5939,3.598,3.5929,3.595,3.598,3.5977,3.5979,3.6093,3.6052,3.6099,3.6171,3.6204,3.6218,3.623,3.6269,3.6283,3.6107,3.6108,3.6108,0,3.6026,3.6061,3.602,3.6052,3.6057,3.5997,3.6041,3.6039,3.6037,3.6041,3.6008,3.6044,3.6036,3.609,3.6117,3.6122,3.6132,3.6099,3.622,3.6231,3.6242,3.6278,3.6293,3.6113,3.6113,3.6112,3.6111,0,3.6146,3.6171,3.6208,3.6206,3.6216,3.6254,3.6219,3.6233,3.6204,3.6185,3.6227,3.6215,3.6225,3.6236,3.6208,3.6286,3.6267,3.6228,3.6167,3.6265,3.6298,3.6312,3.6121,3.6119,3.6117,3.6116,0,0,3.6313,3.629,3.6304,3.6302,3.629,3.6308,3.6344,3.6353,3.6366,3.6367,3.6395,3.6423,3.6386,3.6389,3.6361,3.639,3.6479,3.6347,3.6346,3.6369,3.6562,3.659,3.6606,3.6453,3.6456,3.6458,3.6562,0,3.642,3.6478,3.6443,3.6507,3.6529,3.6473,3.6504,3.65,3.6484,3.65,3.6482,3.6501,3.6453,3.6454,3.6481,3.6462,3.6516,3.6455,3.6477,3.6479,3.6477,3.6624,3.6653,3.6751,3.6575,3.6577,3.6578,0,3.6551,3.6557,3.6623,3.6606,3.6614,3.6642,3.6647,3.6665,3.6659,3.6645,3.6649,3.6614,3.6647,3.6591,3.6636,3.6595,3.6603,3.6595,3.6598,3.6596,3.6532,3.6623,3.6782,3.6796,3.6599,3.6597,3.6596,0,3.6662,3.6688,3.673,3.6731,3.6713,3.6734,3.6727,3.6719,3.6727,3.6733,3.6737,3.6748,3.6752,3.6761,3.6729,3.6691,3.6778,3.6719,3.6766,3.6767,3.6784,3.6783,3.6943,3.6795,3.6794,3.6794,3.6794,0,3.6783,3.6825,3.678,3.6805,3.6851,3.6811,3.6857,3.6845,3.6838,3.686,3.6815,3.6837,3.6795,3.6812,3.6788,3.6828,3.6832,3.6821,3.6813,3.6823,3.6824,3.6825,3.6816,3.6798,3.6797,3.6796,3.6796,0,3.6914,3.6886,3.6927,3.6908,3.6904,3.6938,3.6921,3.6944,3.6925,3.6954,3.6958,3.6929,3.6947,3.6917,3.6933,3.6917,3.6972,3.6955,3.6973,3.6967,3.7015,3.701,3.7179,3.7198,3.704,3.7042,3.7043,0,3.699,3.7021,3.7005,3.7016,3.7012,3.7032,3.704,3.7003,3.7013,3.701,3.7033,3.7048,3.7058,3.709,3.707,3.7082,3.7063,3.7122,3.7064,3.7073,3.7061,3.7058,3.706,3.7133,3.7135,3.7136,3.7137,0,3.7129,3.7114,3.7126,3.7135,3.7146,3.7151,3.7153,3.7165,3.7126,3.714,3.7159,3.7166,3.7182,3.7197,3.7204,3.7197,3.7161,3.7156,3.7167,3.7176,3.7184,3.7177,3.7002,3.7152,3.715,3.7149,3.7148,3.7148,3.7232,3.7257,3.7249,3.7265,3.7263,3.7266,3.7286,3.727,3.7285,3.7294,3.7272,3.7296,3.729,3.7296,3.7294,3.7311,3.7285,3.7302,3.7306,3.7309,3.7316,3.7184,3.7313,3.7313,3.7312,3.7312,3.7312,0,3.7366,3.7358,3.7374,3.7377,3.739,3.7357,3.7357,3.737,3.7391,3.7389,3.74,3.7421,3.7436,3.7418,3.7429,3.7447,3.743,3.7451,3.7447,3.7446,3.734,3.7327,3.7464,3.7464,3.7464,3.7464,3.7464,3.7464,3.7436,3.7475,3.7459,3.7497,3.7489,3.7511,3.7514,3.7517,3.7515,3.754,3.7552,3.7541,3.7533,3.7543,3.7555,3.755,3.7555,3.7581,3.7569,3.7469,3.7454,3.7439,3.7428,3.7583,3.7583,3.7673,3.7674,3.7675]},{"header":{"parameterUnit":"m.s-1","parameterCategory":1,"la1":30.2991,"la2":30.254,"lo1":-89.0895,"lo2":-89.0444,"dy":0.0017,"dx":0.0017,"nx":28,"ny":28,"refTime":"2025-04-05T09:00:00:Z","depth":0,"parameterNumber":3,"parameterNumberName":"V-component_of_WINDS"},"data":[0,0,0,0,0,0,0,0,0,0,0,0,0,0,0,0,0,0,0,0,0,0,0,0,0,0,0,0,0,0,0,0,0,0,0,0,0,0,0,0,0,0,0,0,0,0,0,0,0,0,0,0,0,0,0,0,0,0,7.6354,7.6356,0,7.6596,7.6599,7.6601,7.6644,7.6642,7.664,7.6638,7.6871,7.6879,7.6887,0,0,0,0,0,0,0,0,0,0,0,0,0,7.591,7.5918,7.6353,7.6357,7.636,7.6596,7.6599,7.6602,7.6644,7.6642,7.6639,7.6637,7.6869,7.6878,7.6888,0,0,0,0,0,0,0,0,0,0,0,0,0,7.6122,7.5921,7.6353,7.6409,7.6417,7.6595,7.6599,7.6603,7.6645,7.6642,7.6639,7.6636,7.6866,7.6877,7.6889,7.7024,0,0,7.6926,7.6932,0,0,0,0,0,0,0,0,7.611,7.6138,7.6398,7.6406,7.6415,7.6587,7.6528,7.6743,7.6645,7.6558,7.6638,7.6635,7.6778,7.6797,7.6849,7.7035,7.7045,7.6927,7.6935,7.694,7.6943,0,0,0,0,0,0,0,7.6095,7.6128,7.6449,7.6402,7.6412,7.6417,7.6444,7.6569,7.6681,7.6565,7.6569,7.6598,7.6782,7.6837,7.6855,7.7048,7.6927,7.6938,7.6945,7.695,7.7352,7.7355,0,0,0,0,0,0,7.6073,7.6116,7.6441,7.6456,7.6252,7.6427,7.6458,7.6534,7.668,7.67,7.66,7.6599,7.6818,7.684,7.6863,7.7028,7.694,7.6951,7.6958,7.7348,7.7352,7.7356,0,0,0,0,0,0,7.6063,7.6102,7.6431,7.6287,7.633,7.6438,7.6524,7.6541,7.6596,7.6707,7.6725,7.6637,7.6816,7.6846,7.6984,7.7037,7.6957,7.6968,7.7344,7.735,7.7354,7.736,0,0,0,0,0,0,7.605,7.6098,7.6154,7.6288,7.6337,7.6553,7.6528,7.6548,7.6619,7.6619,7.6746,7.6764,7.6816,7.6965,7.6996,7.7052,7.6977,7.734,7.7347,7.7353,7.7355,7.7365,7.7372,0,0,0,0,0,7.6034,7.6143,7.6157,7.6196,7.6411,7.6556,7.6583,7.6646,7.6623,7.6677,7.6748,7.676,7.7026,7.6979,7.7014,7.7074,7.7337,7.7345,7.7352,7.7352,7.7363,7.7372,0,0,0,0,0,0,7.6008,7.6162,7.6179,7.6336,7.6433,7.6563,7.6634,7.6656,7.6758,7.6754,7.6822,7.685,7.6983,7.7042,7.6987,7.721,7.7179,7.7194,7.7167,7.7178,7.7187,7.7169,7.6987,0,0,0,0,0,7.6021,7.6132,7.6258,7.6384,7.6433,7.6525,7.659,7.663,7.6732,7.6771,7.6852,7.6946,7.705,7.7118,7.722,7.7364,7.739,7.7422,7.7431,7.7437,7.7449,7.7526,7.7541,7.7381,7.7381,7.7381,0,0,7.6048,7.6146,7.6211,7.6381,7.6461,7.6569,7.6559,7.6674,7.6753,7.6787,7.6924,7.6985,7.7094,7.7235,7.7301,7.7288,7.7499,7.7447,7.7451,7.746,7.7535,7.755,7.7564,7.7387,7.7386,7.7385,0,0,7.6152,7.6239,7.6353,7.6434,7.6557,7.6617,7.6644,7.6771,7.6815,7.6954,7.6981,7.7073,7.7252,7.7328,7.739,7.752,7.7534,7.7551,7.7595,7.7669,7.7682,7.7693,7.7737,7.7753,7.7562,7.7562,7.7562,0,7.6168,7.6338,7.6407,7.6521,7.6593,7.6634,7.6746,7.6819,7.6967,7.7013,7.6998,7.7223,7.7299,7.7457,7.7489,7.7538,7.7567,7.7537,7.7675,7.7688,7.7699,7.7742,7.7758,7.7563,7.7563,7.7563,7.7563,0,7.635,7.6466,7.6542,7.6689,7.6769,7.6881,7.6962,7.7034,7.7066,7.7126,7.7263,7.7356,7.7477,7.7517,7.7548,7.7678,7.7667,7.7663,7.7633,7.7714,7.7755,7.7772,7.7565,7.7565,7.7564,7.7564,0,0,7.6445,7.6629,7.6655,7.6722,7.6859,7.6947,7.7058,7.7182,7.724,7.7339,7.7432,7.7582,7.7579,7.7649,7.7688,7.7753,7.7847,7.7741,7.7744,7.7756,7.7993,7.7995,7.8013,7.7857,7.7861,7.7864,7.7983,0,7.6564,7.6772,7.6836,7.7006,7.7111,7.715,7.7246,7.7338,7.7396,7.749,7.7552,7.7657,7.7646,7.7688,7.7755,7.7822,7.7895,7.7814,7.7939,7.7943,7.7911,7.8035,7.8038,7.8146,7.8,7.8003,7.8005,0,7.6732,7.6839,7.7021,7.7144,7.719,7.7277,7.7393,7.7484,7.7586,7.7623,7.7701,7.7734,7.7846,7.7811,7.7964,7.7907,7.7961,7.8001,7.8007,7.802,7.7978,7.8049,7.8183,7.8198,7.8031,7.8029,7.8027,0,7.678,7.6969,7.7103,7.7158,7.7305,7.7364,7.7427,7.7527,7.7596,7.7695,7.7739,7.7848,7.7908,7.7989,7.8049,7.8018,7.8195,7.8165,7.8225,7.8224,7.826,7.8257,7.8403,7.8298,7.8297,7.8297,7.8297,0,7.6906,7.7015,7.7127,7.7208,7.733,7.74,7.7517,7.758,7.7669,7.7759,7.7797,7.788,7.7955,7.8046,7.8093,7.821,7.8237,7.8267,7.8277,7.8263,7.8259,7.8299,7.8292,7.8301,7.83,7.83,7.8299,0,7.6981,7.7061,7.7208,7.7336,7.737,7.7454,7.756,7.7637,7.7697,7.7811,7.7841,7.7932,7.8042,7.811,7.8247,7.8278,7.8407,7.8416,7.8374,7.8379,7.8435,7.8428,7.861,7.8636,7.8515,7.8516,7.8517,0,7.7056,7.7142,7.7279,7.7345,7.741,7.7515,7.7586,7.7656,7.7728,7.785,7.7911,7.8024,7.8118,7.829,7.8365,7.8469,7.848,7.8537,7.8495,7.8477,7.8478,7.8472,7.848,7.8543,7.8544,7.8545,7.8545,0,7.7179,7.7214,7.7319,7.7436,7.7521,7.7616,7.7709,7.7759,7.7844,7.7922,7.8037,7.811,7.8251,7.8361,7.8472,7.853,7.855,7.8558,7.8577,7.8562,7.8534,7.8548,7.8391,7.8553,7.8552,7.8552,7.8551,7.8551,7.7255,7.7333,7.7442,7.7555,7.7634,7.7721,7.78,7.787,7.7969,7.8093,7.8126,7.8245,7.8341,7.8493,7.8554,7.8644,7.8636,7.8664,7.8671,7.8676,7.8676,7.8521,7.8664,7.8664,7.8664,7.8664,7.8664,0,7.7379,7.7451,7.7556,7.7688,7.7776,7.7792,7.7896,7.7967,7.8073,7.8163,7.8256,7.8385,7.8491,7.8575,7.8683,7.8739,7.875,7.8764,7.876,7.8772,7.8679,7.8651,7.8753,7.8753,7.8753,7.8753,7.8753,7.8753,7.7454,7.7585,7.7632,7.78,7.787,7.7991,7.8049,7.8126,7.8199,7.8344,7.8434,7.849,7.8576,7.869,7.8786,7.8808,7.8844,7.8856,7.8879,7.8789,7.8779,7.877,7.8744,7.8864,7.8864,7.8965,7.8966,7.8967]}]]